Location: Chateh
(58.6667°N, 118.6000°W)
Time: 18:45:28
(UTC+00:00)

Gurwin Techsat 1B - Pass Details

Date: 03 December 2023
Orbit: 810 x 813 km, 98.9° (Epoch: 21 February)

Event Time Altitude Azimuth Distance (km) Brightness Sun altitude
Rises 10:42:13 0° 20° (NNE) 3,352 12.4 -41.7°
Reaches altitude 10° 10:44:45 10° 29° (NNE) 2,416 11.6 -41.4°
Enters shadow 10:46:07 17° 37° (NE) 1,954 11.0 -41.2°
